Time,TemperatureF,DewpointF,PressureIn,WindDirection,WindDirectionDegrees,WindSpeedMPH,WindSpeedGustMPH,Humidity,HourlyPrecipIn,Conditions,Clouds,dailyrainin,SoftwareType,DateUTC
2013-01-29 00:01:00,67.8,64.2,-100.00,NE,45,1.0,6.0,88,0.00,,,0.00,meteohub,2013-01-29 06:01:00,
2013-01-29 00:02:00,67.8,64.2,-100.00,NE,45,1.0,6.0,88,0.00,,,0.00,meteohub,2013-01-29 06:02:00,
2013-01-29 00:07:00,67.8,64.2,-100.00,South,180,5.0,6.0,88,0.00,,,0.00,meteohub,2013-01-29 06:07:00,
2013-01-29 00:09:00,67.8,64.2,-100.00,South,180,1.0,6.0,88,0.00,,,0.00,meteohub,2013-01-29 06:09:00,
2013-01-29 00:13:00,67.8,64.2,-100.00,South,180,2.0,5.0,88,0.00,,,0.00,meteohub,2013-01-29 06:13:00,
2013-01-29 00:15:00,67.8,64.2,-100.00,South,180,2.0,5.0,88,0.00,,,0.00,meteohub,2013-01-29 06:15:00,
2013-01-29 00:17:00,67.8,64.2,-100.00,ENE,68,0.0,5.0,88,0.00,,,0.00,meteohub,2013-01-29 06:17:00,
2013-01-29 00:23:00,67.8,64.2,-100.00,SSE,158,1.0,5.0,88,0.00,,,0.00,meteohub,2013-01-29 06:23:00,
2013-01-29 00:25:00,67.8,64.2,-100.00,WSW,248,2.0,6.0,88,0.00,,,0.00,meteohub,2013-01-29 06:25:00,
2013-01-29 00:31:00,67.8,64.2,-100.00,South,180,1.0,6.0,88,0.00,,,0.00,meteohub,2013-01-29 06:31:00,
2013-01-29 00:32:00,67.8,64.2,-100.00,South,180,1.0,6.0,88,0.00,,,0.00,meteohub,2013-01-29 06:32:00,
2013-01-29 00:37:00,67.8,64.2,-100.00,SE,135,5.0,6.0,88,0.00,,,0.00,meteohub,2013-01-29 06:37:00,
2013-01-29 00:39:00,67.8,64.2,-100.00,South,180,4.0,6.0,88,0.00,,,0.00,meteohub,2013-01-29 06:39:00,
2013-01-29 00:43:00,67.8,64.2,-100.00,SSE,158,2.0,5.0,88,0.00,,,0.00,meteohub,2013-01-29 06:43:00,
2013-01-29 00:45:00,67.8,64.2,-100.00,South,180,3.0,5.0,88,0.00,,,0.00,meteohub,2013-01-29 06:45:00,
2013-01-29 00:51:00,67.8,64.2,-100.00,SE,135,1.0,5.0,88,0.00,,,0.00,meteohub,2013-01-29 06:51:00,
2013-01-29 00:54:00,67.8,64.2,-100.00,SSW,203,5.0,5.0,88,0.00,,,0.00,meteohub,2013-01-29 06:54:00,
2013-01-29 00:58:00,67.8,64.2,-100.00,SE,135,2.0,5.0,88,0.00,,,0.00,meteohub,2013-01-29 06:58:00,
2013-01-29 01:00:00,67.8,64.2,-100.00,SSW,203,1.0,5.0,88,0.00,,,0.00,meteohub,2013-01-29 07:00:00,
2013-01-29 01:02:00,67.8,64.2,-100.00,SSW,203,1.0,7.0,88,0.00,,,0.00,meteohub,2013-01-29 07:02:00,
2013-01-29 01:04:00,67.8,64.2,-100.00,South,180,0.0,7.0,88,0.00,,,0.00,meteohub,2013-01-29 07:04:00,
2013-01-29 01:06:00,67.8,64.2,-100.00,East,90,1.0,7.0,88,0.00,,,0.00,meteohub,2013-01-29 07:06:00,
2013-01-29 01:12:00,67.8,64.2,-100.00,SW,225,7.0,7.0,88,0.00,,,0.00,meteohub,2013-01-29 07:12:00,
2013-01-29 01:14:00,67.8,64.2,-100.00,South,180,2.0,7.0,88,0.00,,,0.00,meteohub,2013-01-29 07:14:00,
2013-01-29 01:17:00,67.8,64.2,-100.00,ENE,68,3.0,7.0,88,0.00,,,0.00,meteohub,2013-01-29 07:17:00,
2013-01-29 01:18:00,67.8,64.2,-100.00,SSE,158,2.0,7.0,88,0.00,,,0.00,meteohub,2013-01-29 07:18:00,
2013-01-29 01:20:00,67.8,64.2,-100.00,SSE,158,2.0,7.0,88,0.00,,,0.00,meteohub,2013-01-29 07:20:00,
2013-01-29 01:22:00,67.8,64.2,-100.00,SE,135,3.0,7.0,88,0.00,,,0.00,meteohub,2013-01-29 07:22:00,
2013-01-29 01:28:00,67.6,64.2,-100.00,South,180,1.0,7.0,89,0.00,,,0.00,meteohub,2013-01-29 07:28:00,
2013-01-29 01:30:00,67.6,64.2,-100.00,South,180,1.0,7.0,89,0.00,,,0.00,meteohub,2013-01-29 07:30:00,
2013-01-29 01:34:00,67.6,64.2,-100.00,SE,135,3.0,7.0,89,0.00,,,0.00,meteohub,2013-01-29 07:34:00,
2013-01-29 01:36:00,67.6,64.2,-100.00,SE,135,0.0,7.0,89,0.00,,,0.00,meteohub,2013-01-29 07:36:00,
2013-01-29 01:38:00,67.5,64.0,-100.00,ESE,113,4.0,7.0,89,0.00,,,0.00,meteohub,2013-01-29 07:38:00,
2013-01-29 01:40:00,67.5,64.0,-100.00,SW,225,1.0,7.0,89,0.00,,,0.00,meteohub,2013-01-29 07:40:00,
2013-01-29 01:42:00,67.3,63.9,-100.00,SW,225,6.0,6.0,89,0.00,,,0.00,meteohub,2013-01-29 07:42:00,
2013-01-29 01:44:00,67.3,63.9,-100.00,South,180,3.0,4.0,89,0.00,,,0.00,meteohub,2013-01-29 07:44:00,
2013-01-29 01:47:00,67.3,64.2,-100.00,SSW,203,4.0,6.0,90,0.00,,,0.00,meteohub,2013-01-29 07:47:00,
2013-01-29 01:48:00,67.3,64.2,-100.00,SE,135,0.0,6.0,90,0.00,,,0.00,meteohub,2013-01-29 07:48:00,
2013-01-29 01:50:00,67.3,64.2,-100.00,SW,225,2.0,6.0,90,0.00,,,0.00,meteohub,2013-01-29 07:50:00,
2013-01-29 01:54:00,67.1,64.0,-100.00,East,90,6.0,6.0,90,0.00,,,0.00,meteohub,2013-01-29 07:54:00,
2013-01-29 01:58:00,67.1,64.0,-100.00,SW,225,9.0,9.0,90,0.00,,,0.00,meteohub,2013-01-29 07:58:00,
2013-01-29 02:04:00,66.9,63.9,-100.00,South,180,3.0,9.0,90,0.00,,,0.00,meteohub,2013-01-29 08:04:00,
2013-01-29 02:06:00,66.9,63.9,-100.00,South,180,3.0,9.0,90,0.00,,,0.00,meteohub,2013-01-29 08:06:00,
2013-01-29 02:08:00,66.9,63.9,-100.00,East,90,4.0,9.0,90,0.00,,,0.00,meteohub,2013-01-29 08:08:00,
2013-01-29 02:12:00,66.9,63.9,-100.00,ESE,113,8.0,9.0,90,0.00,,,0.00,meteohub,2013-01-29 08:12:00,
2013-01-29 02:17:00,66.9,63.9,-100.00,South,180,2.0,8.0,90,0.00,,,0.00,meteohub,2013-01-29 08:17:00,
2013-01-29 02:18:00,66.9,63.9,-100.00,ESE,113,3.0,8.0,90,0.00,,,0.00,meteohub,2013-01-29 08:18:00,
2013-01-29 02:22:00,66.7,63.7,-100.00,SSE,158,2.0,8.0,90,0.00,,,0.00,meteohub,2013-01-29 08:22:00,
2013-01-29 02:24:00,66.9,63.9,-100.00,SSW,203,6.0,8.0,90,0.00,,,0.00,meteohub,2013-01-29 08:24:00,
2013-01-29 02:28:00,66.7,63.7,-100.00,South,180,4.0,8.0,90,0.00,,,0.00,meteohub,2013-01-29 08:28:00,
2013-01-29 02:34:00,66.7,63.7,-100.00,ENE,68,10.0,10.0,90,0.00,,,0.00,meteohub,2013-01-29 08:34:00,
2013-01-29 02:36:00,66.7,63.7,-100.00,South,180,5.0,10.0,90,0.00,,,0.00,meteohub,2013-01-29 08:36:00,
2013-01-29 02:42:00,66.7,63.7,-100.00,SSW,203,4.0,10.0,90,0.00,,,0.00,meteohub,2013-01-29 08:42:00,
2013-01-29 02:46:00,66.7,63.7,-100.00,SSE,158,3.0,10.0,90,0.00,,,0.00,meteohub,2013-01-29 08:46:00,
2013-01-29 02:48:00,66.7,63.7,-100.00,SW,225,4.0,10.0,90,0.00,,,0.00,meteohub,2013-01-29 08:48:00,
2013-01-29 02:50:00,66.7,63.7,-100.00,ESE,113,2.0,5.0,90,0.00,,,0.00,meteohub,2013-01-29 08:50:00,
2013-01-29 02:54:00,66.7,63.7,-100.00,SSE,158,2.0,5.0,90,0.00,,,0.00,meteohub,2013-01-29 08:54:00,
2013-01-29 02:56:00,66.7,63.7,-100.00,SE,135,1.0,4.0,90,0.00,,,0.00,meteohub,2013-01-29 08:56:00,
2013-01-29 03:00:00,66.7,63.7,-100.00,ESE,113,2.0,4.0,90,0.00,,,0.00,meteohub,2013-01-29 09:00:00,
2013-01-29 03:02:00,66.7,63.7,-100.00,ESE,113,2.0,4.0,90,0.00,,,0.00,meteohub,2013-01-29 09:02:00,
2013-01-29 03:04:00,66.7,63.7,-100.00,SSW,203,3.0,4.0,90,0.00,,,0.00,meteohub,2013-01-29 09:04:00,
2013-01-29 03:06:00,66.7,64.0,-100.00,WSW,248,6.0,6.0,91,0.00,,,0.00,meteohub,2013-01-29 09:06:00,
2013-01-29 03:08:00,66.7,64.0,-100.00,East,90,5.0,5.0,91,0.00,,,0.00,meteohub,2013-01-29 09:08:00,
2013-01-29 03:12:00,66.7,64.0,-100.00,SW,225,0.0,6.0,91,0.00,,,0.00,meteohub,2013-01-29 09:12:00,
2013-01-29 03:14:00,66.7,64.0,-100.00,SSE,158,0.0,6.0,91,0.00,,,0.00,meteohub,2013-01-29 09:14:00,
2013-01-29 03:18:00,66.7,63.7,-100.00,SSE,158,3.0,6.0,90,0.00,,,0.00,meteohub,2013-01-29 09:18:00,
2013-01-29 03:24:00,66.7,63.7,-100.00,SE,135,4.0,6.0,90,0.00,,,0.00,meteohub,2013-01-29 09:24:00,
2013-01-29 03:26:00,66.7,63.7,-100.00,South,180,3.0,6.0,90,0.00,,,0.00,meteohub,2013-01-29 09:26:00,
2013-01-29 03:28:00,66.7,63.7,-100.00,South,180,8.0,8.0,90,0.00,,,0.00,meteohub,2013-01-29 09:28:00,
2013-01-29 03:30:00,66.7,63.7,-100.00,South,180,0.0,6.0,90,0.00,,,0.00,meteohub,2013-01-29 09:30:00,
2013-01-29 03:32:00,66.7,63.7,-100.00,South,180,0.0,6.0,90,0.00,,,0.00,meteohub,2013-01-29 09:32:00,
2013-01-29 03:34:00,66.7,63.7,-100.00,SE,135,8.0,8.0,90,0.00,,,0.00,meteohub,2013-01-29 09:34:00,
2013-01-29 03:36:00,66.7,63.7,-100.00,SSW,203,16.0,16.0,90,0.00,,,0.00,meteohub,2013-01-29 09:36:00,
2013-01-29 03:38:00,66.7,63.7,-100.00,SSW,203,16.0,16.0,90,0.00,,,0.00,meteohub,2013-01-29 09:38:00,
2013-01-29 03:43:00,66.7,63.7,-100.00,NE,45,4.0,16.0,90,0.00,,,0.00,meteohub,2013-01-29 09:43:00,
2013-01-29 03:45:00,66.7,63.7,-100.00,SSW,203,4.0,16.0,90,0.00,,,0.00,meteohub,2013-01-29 09:45:00,
2013-01-29 03:47:00,66.9,63.9,-100.00,SSW,203,2.0,16.0,90,0.00,,,0.00,meteohub,2013-01-29 09:47:00,
2013-01-29 03:51:00,66.7,63.7,-100.00,SSW,203,4.0,16.0,90,0.00,,,0.00,meteohub,2013-01-29 09:51:00,
2013-01-29 03:55:00,66.7,63.7,-100.00,SSE,158,4.0,16.0,90,0.00,,,0.00,meteohub,2013-01-29 09:55:00,
2013-01-29 03:57:00,66.7,63.7,-100.00,SE,135,6.0,6.0,90,0.00,,,0.00,meteohub,2013-01-29 09:57:00,
2013-01-29 03:59:00,66.7,63.7,-100.00,SSW,203,9.0,9.0,90,0.00,,,0.00,meteohub,2013-01-29 09:59:00,
2013-01-29 04:01:00,66.7,63.7,-100.00,SSW,203,9.0,9.0,90,0.00,,,0.00,meteohub,2013-01-29 10:01:00,
2013-01-29 04:03:00,66.7,63.7,-100.00,South,180,3.0,9.0,90,0.00,,,0.00,meteohub,2013-01-29 10:03:00,
2013-01-29 04:07:00,66.7,63.3,-100.00,SW,225,4.0,9.0,89,0.00,,,0.00,meteohub,2013-01-29 10:07:00,
2013-01-29 04:11:00,66.7,63.3,-100.00,South,180,4.0,9.0,89,0.00,,,0.00,meteohub,2013-01-29 10:11:00,
2013-01-29 04:13:00,66.7,63.3,-100.00,South,180,5.0,9.0,89,0.00,,,0.00,meteohub,2013-01-29 10:13:00,
2013-01-29 04:17:00,66.7,63.3,-100.00,SSW,203,4.0,9.0,89,0.00,,,0.00,meteohub,2013-01-29 10:17:00,
2013-01-29 04:23:00,66.7,63.3,-100.00,SSW,203,6.0,6.0,89,0.00,,,0.00,meteohub,2013-01-29 10:23:00,
2013-01-29 04:27:00,66.7,63.3,-100.00,SE,135,5.0,6.0,89,0.00,,,0.00,meteohub,2013-01-29 10:27:00,
2013-01-29 04:29:00,66.7,63.3,-100.00,South,180,2.0,6.0,89,0.00,,,0.00,meteohub,2013-01-29 10:29:00,
2013-01-29 04:31:00,66.7,63.7,-100.00,SW,225,4.0,6.0,90,0.00,,,0.00,meteohub,2013-01-29 10:31:00,
2013-01-29 04:32:00,66.7,63.7,-100.00,SW,225,4.0,6.0,90,0.00,,,0.00,meteohub,2013-01-29 10:32:00,
2013-01-29 04:35:00,66.7,63.7,-100.00,South,180,0.0,6.0,90,0.00,,,0.00,meteohub,2013-01-29 10:35:00,
2013-01-29 04:37:00,66.7,63.3,-100.00,South,180,2.0,6.0,89,0.00,,,0.00,meteohub,2013-01-29 10:37:00,
2013-01-29 04:39:00,66.7,63.7,-100.00,WSW,248,2.0,6.0,90,0.00,,,0.00,meteohub,2013-01-29 10:39:00,
2013-01-29 04:41:00,66.7,63.3,-100.00,SSW,203,2.0,5.0,89,0.00,,,0.00,meteohub,2013-01-29 10:41:00,
2013-01-29 04:45:00,66.7,63.3,-100.00,SSW,203,8.0,8.0,89,0.00,,,0.00,meteohub,2013-01-29 10:45:00,
2013-01-29 04:47:00,66.6,63.1,-100.00,South,180,7.0,7.0,89,0.00,,,0.00,meteohub,2013-01-29 10:47:00,
2013-01-29 04:51:00,66.6,63.1,-100.00,ESE,113,0.0,8.0,89,0.00,,,0.00,meteohub,2013-01-29 10:51:00,
2013-01-29 04:55:00,66.7,63.3,-100.00,SE,135,2.0,8.0,89,0.00,,,0.00,meteohub,2013-01-29 10:55:00,
2013-01-29 04:57:00,66.7,63.3,-100.00,SSW,203,8.0,8.0,89,0.00,,,0.00,meteohub,2013-01-29 10:57:00,
2013-01-29 04:59:00,66.7,63.3,-100.00,ESE,113,1.0,8.0,89,0.00,,,0.00,meteohub,2013-01-29 10:59:00,
2013-01-29 05:01:00,66.7,63.3,-100.00,ESE,113,1.0,8.0,89,0.00,,,0.00,meteohub,2013-01-29 11:01:00,
2013-01-29 05:05:00,66.7,63.3,-100.00,SW,225,3.0,8.0,89,0.00,,,0.00,meteohub,2013-01-29 11:05:00,
2013-01-29 05:09:00,66.7,63.3,-100.00,ESE,113,2.0,8.0,89,0.00,,,0.00,meteohub,2013-01-29 11:09:00,
2013-01-29 05:11:00,66.7,63.3,-100.00,ESE,113,2.0,8.0,89,0.00,,,0.00,meteohub,2013-01-29 11:11:00,
2013-01-29 05:15:00,66.7,63.3,-100.00,SE,135,2.0,4.0,89,0.00,,,0.00,meteohub,2013-01-29 11:15:00,
2013-01-29 05:17:00,66.7,63.3,-100.00,South,180,6.0,6.0,89,0.00,,,0.00,meteohub,2013-01-29 11:17:00,
2013-01-29 05:19:00,66.7,63.3,-100.00,SSW,203,2.0,4.0,89,0.00,,,0.00,meteohub,2013-01-29 11:19:00,
2013-01-29 05:23:00,66.7,63.3,-100.00,SW,225,3.0,6.0,89,0.00,,,0.00,meteohub,2013-01-29 11:23:00,
2013-01-29 05:25:00,66.7,63.3,-100.00,SSW,203,4.0,6.0,89,0.00,,,0.00,meteohub,2013-01-29 11:25:00,
2013-01-29 05:31:00,66.7,63.3,-100.00,SW,225,6.0,8.0,89,0.00,,,0.00,meteohub,2013-01-29 11:31:00,
2013-01-29 05:33:00,66.7,63.3,-100.00,West,270,4.0,8.0,89,0.00,,,0.00,meteohub,2013-01-29 11:33:00,
2013-01-29 05:37:00,66.9,63.3,-100.00,SE,135,2.0,8.0,88,0.00,,,0.00,meteohub,2013-01-29 11:37:00,
2013-01-29 05:39:00,66.9,63.5,-100.00,South,180,2.0,8.0,89,0.00,,,0.00,meteohub,2013-01-29 11:39:00,
2013-01-29 05:41:00,66.9,63.3,-100.00,SE,135,3.0,8.0,88,0.00,,,0.00,meteohub,2013-01-29 11:41:00,
2013-01-29 05:43:00,66.9,63.3,-100.00,SSW,203,2.0,8.0,88,0.00,,,0.00,meteohub,2013-01-29 11:43:00,
2013-01-29 05:45:00,66.9,63.3,-100.00,South,180,6.0,6.0,88,0.00,,,0.00,meteohub,2013-01-29 11:45:00,
2013-01-29 05:47:00,66.9,63.3,-100.00,South,180,6.0,6.0,88,0.00,,,0.00,meteohub,2013-01-29 11:47:00,
2013-01-29 05:49:00,66.9,63.3,-100.00,South,180,16.0,16.0,88,0.00,,,0.00,meteohub,2013-01-29 11:49:00,
2013-01-29 05:51:00,66.9,63.3,-100.00,SE,135,1.0,16.0,88,0.00,,,0.00,meteohub,2013-01-29 11:51:00,
2013-01-29 05:57:00,66.9,63.3,-100.00,SW,225,7.0,16.0,88,0.00,,,0.00,meteohub,2013-01-29 11:57:00,
2013-01-29 05:59:00,66.9,63.3,-100.00,SSW,203,4.0,16.0,88,0.00,,,0.00,meteohub,2013-01-29 11:59:00,
2013-01-29 06:02:00,66.9,63.3,-100.00,SSW,203,4.0,16.0,88,0.00,,,0.00,meteohub,2013-01-29 12:02:00,
2013-01-29 06:07:00,66.9,63.3,-100.00,South,180,4.0,7.0,88,0.00,,,0.00,meteohub,2013-01-29 12:07:00,
2013-01-29 06:09:00,66.9,63.3,-100.00,ESE,113,3.0,7.0,88,0.00,,,0.00,meteohub,2013-01-29 12:09:00,
2013-01-29 06:13:00,66.9,63.3,-100.00,SSE,158,4.0,7.0,88,0.00,,,0.00,meteohub,2013-01-29 12:13:00,
2013-01-29 06:17:00,66.9,63.3,-100.00,SSE,158,6.0,6.0,88,0.00,,,0.00,meteohub,2013-01-29 12:17:00,
2013-01-29 06:19:00,66.9,63.3,-100.00,South,180,0.0,4.0,88,0.00,,,0.00,meteohub,2013-01-29 12:19:00,
2013-01-29 06:21:00,66.9,63.3,-100.00,SSE,158,2.0,6.0,88,0.00,,,0.00,meteohub,2013-01-29 12:21:00,
2013-01-29 06:28:00,66.9,63.3,-100.00,SSW,203,2.0,6.0,88,0.00,,,0.00,meteohub,2013-01-29 12:28:00,
2013-01-29 06:30:00,66.9,63.3,-100.00,SSW,203,9.0,9.0,88,0.00,,,0.00,meteohub,2013-01-29 12:30:00,
2013-01-29 06:32:00,66.9,63.3,-100.00,SSW,203,2.0,9.0,88,0.00,,,0.00,meteohub,2013-01-29 12:32:00,
2013-01-29 06:36:00,66.9,63.3,-100.00,SW,225,8.0,9.0,88,0.00,,,0.00,meteohub,2013-01-29 12:36:00,
2013-01-29 06:38:00,66.9,63.3,-100.00,SSE,158,4.0,9.0,88,0.00,,,0.00,meteohub,2013-01-29 12:38:00,
2013-01-29 06:40:00,66.9,63.3,-100.00,South,180,0.0,9.0,88,0.00,,,0.00,meteohub,2013-01-29 12:40:00,
2013-01-29 06:44:00,66.9,63.3,-100.00,WSW,248,6.0,9.0,88,0.00,,,0.00,meteohub,2013-01-29 12:44:00,
2013-01-29 06:47:00,66.9,63.0,-100.00,SSW,203,4.0,8.0,87,0.00,,,0.00,meteohub,2013-01-29 12:47:00,
2013-01-29 06:48:00,67.1,63.1,-100.00,ESE,113,1.0,8.0,87,0.00,,,0.00,meteohub,2013-01-29 12:48:00,
2013-01-29 06:50:00,66.9,63.0,-100.00,SE,135,6.0,8.0,87,0.00,,,0.00,meteohub,2013-01-29 12:50:00,
2013-01-29 06:52:00,66.9,63.0,-100.00,SSE,158,0.0,8.0,87,0.00,,,0.00,meteohub,2013-01-29 12:52:00,
2013-01-29 06:54:00,66.9,63.0,-100.00,SSE,158,0.0,8.0,87,0.00,,,0.00,meteohub,2013-01-29 12:54:00,
2013-01-29 06:58:00,66.9,63.0,-100.00,ESE,113,3.0,6.0,87,0.00,,,0.00,meteohub,2013-01-29 12:58:00,
2013-01-29 07:00:00,67.1,63.1,-100.00,SSW,203,3.0,6.0,87,0.00,,,0.00,meteohub,2013-01-29 13:00:00,
2013-01-29 07:02:00,66.9,63.0,-100.00,SW,225,3.0,6.0,87,0.00,,,0.00,meteohub,2013-01-29 13:02:00,
2013-01-29 07:06:00,67.1,63.1,-100.00,SSW,203,3.0,9.0,87,0.00,,,0.00,meteohub,2013-01-29 13:06:00,
2013-01-29 07:08:00,67.1,63.1,-100.00,SSW,203,4.0,9.0,87,0.00,,,0.00,meteohub,2013-01-29 13:08:00,
2013-01-29 07:10:00,67.1,63.1,-100.00,South,180,5.0,9.0,87,0.00,,,0.00,meteohub,2013-01-29 13:10:00,
2013-01-29 07:12:00,67.1,63.1,-100.00,SSW,203,2.0,9.0,87,0.00,,,0.00,meteohub,2013-01-29 13:12:00,
2013-01-29 07:14:00,67.1,63.1,-100.00,South,180,1.0,9.0,87,0.00,,,0.00,meteohub,2013-01-29 13:14:00,
2013-01-29 07:20:00,67.1,63.1,-100.00,SSW,203,9.0,9.0,87,0.00,,,0.00,meteohub,2013-01-29 13:20:00,
2013-01-29 07:22:00,67.1,63.1,-100.00,SSE,158,2.0,5.0,87,0.00,,,0.00,meteohub,2013-01-29 13:22:00,
2013-01-29 07:24:00,67.3,63.3,-100.00,SSE,158,2.0,5.0,87,0.00,,,0.00,meteohub,2013-01-29 13:24:00,
2013-01-29 07:30:00,67.1,63.1,-100.00,West,270,0.0,9.0,87,0.00,,,0.00,meteohub,2013-01-29 13:30:00,
2013-01-29 07:32:00,67.1,63.1,-100.00,West,270,0.0,9.0,87,0.00,,,0.00,meteohub,2013-01-29 13:32:00,
2013-01-29 07:34:00,67.3,63.3,-100.00,West,270,2.0,9.0,87,0.00,,,0.00,meteohub,2013-01-29 13:34:00,
2013-01-29 07:38:00,67.3,63.3,-100.00,SSW,203,3.0,9.0,87,0.00,,,0.00,meteohub,2013-01-29 13:38:00,
2013-01-29 07:42:00,67.3,63.3,-100.00,East,90,1.0,4.0,87,0.00,,,0.00,meteohub,2013-01-29 13:42:00,
2013-01-29 07:44:00,67.1,63.1,-100.00,WSW,248,4.0,4.0,87,0.00,,,0.00,meteohub,2013-01-29 13:44:00,
2013-01-29 07:50:00,67.3,63.3,-100.00,SE,135,4.0,10.0,87,0.00,,,0.00,meteohub,2013-01-29 13:50:00,
2013-01-29 07:52:00,67.1,63.1,-100.00,East,90,2.0,10.0,87,0.00,,,0.00,meteohub,2013-01-29 13:52:00,
2013-01-29 07:56:00,67.1,63.1,-100.00,SW,225,6.0,10.0,87,0.00,,,0.00,meteohub,2013-01-29 13:56:00,
2013-01-29 08:02:00,67.3,63.3,-100.00,SW,225,5.0,10.0,87,0.00,,,0.00,meteohub,2013-01-29 14:02:00,
2013-01-29 08:04:00,67.3,63.3,-100.00,SW,225,4.0,10.0,87,0.00,,,0.00,meteohub,2013-01-29 14:04:00,
2013-01-29 08:06:00,67.3,63.3,-100.00,South,180,4.0,6.0,87,0.00,,,0.00,meteohub,2013-01-29 14:06:00,
2013-01-29 08:10:00,67.3,63.3,-100.00,South,180,12.0,12.0,87,0.00,,,0.00,meteohub,2013-01-29 14:10:00,
2013-01-29 08:14:00,67.3,63.3,-100.00,ESE,113,1.0,6.0,87,0.00,,,0.00,meteohub,2013-01-29 14:14:00,
2013-01-29 08:16:00,67.3,63.3,-100.00,ESE,113,1.0,12.0,87,0.00,,,0.00,meteohub,2013-01-29 14:16:00,
2013-01-29 08:17:00,67.3,63.3,-100.00,ESE,113,1.0,12.0,87,0.00,,,0.00,meteohub,2013-01-29 14:17:00,
2013-01-29 08:22:00,67.3,63.3,-100.00,SSW,203,4.0,12.0,87,0.00,,,0.00,meteohub,2013-01-29 14:22:00,
2013-01-29 08:26:00,67.3,63.3,-100.00,SE,135,3.0,12.0,87,0.00,,,0.00,meteohub,2013-01-29 14:26:00,
2013-01-29 08:30:00,67.5,63.5,-100.00,SSE,158,2.0,4.0,87,0.00,,,0.00,meteohub,2013-01-29 14:30:00,
2013-01-29 08:32:00,67.5,63.5,-100.00,SSE,158,2.0,4.0,87,0.00,,,0.00,meteohub,2013-01-29 14:32:00,
2013-01-29 08:36:00,67.6,63.7,-100.00,ESE,113,4.0,4.0,87,0.00,,,0.00,meteohub,2013-01-29 14:36:00,
2013-01-29 08:38:00,67.6,63.7,-100.00,ESE,113,4.0,4.0,87,0.00,,,0.00,meteohub,2013-01-29 14:38:00,
2013-01-29 08:42:00,67.6,63.3,-100.00,SSW,203,4.0,4.0,86,0.00,,,0.00,meteohub,2013-01-29 14:42:00,
2013-01-29 08:44:00,67.6,63.3,-100.00,SSW,203,2.0,4.0,86,0.00,,,0.00,meteohub,2013-01-29 14:44:00,
2013-01-29 08:47:00,67.6,63.3,-100.00,South,180,1.0,6.0,86,0.00,,,0.00,meteohub,2013-01-29 14:47:00,
2013-01-29 08:48:00,67.8,63.5,-100.00,SSE,158,2.0,6.0,86,0.00,,,0.00,meteohub,2013-01-29 14:48:00,
2013-01-29 08:52:00,67.8,63.5,-100.00,SSW,203,4.0,6.0,86,0.00,,,0.00,meteohub,2013-01-29 14:52:00,
2013-01-29 08:54:00,67.8,63.5,-100.00,SSE,158,3.0,6.0,86,0.00,,,0.00,meteohub,2013-01-29 14:54:00,
2013-01-29 08:56:00,67.8,63.5,-100.00,SSW,203,4.0,6.0,86,0.00,,,0.00,meteohub,2013-01-29 14:56:00,
2013-01-29 09:00:00,67.8,63.5,-100.00,SSE,158,4.0,4.0,86,0.00,,,0.00,meteohub,2013-01-29 15:00:00,
2013-01-29 09:02:00,67.8,63.5,-100.00,SSE,158,4.0,4.0,86,0.00,,,0.00,meteohub,2013-01-29 15:02:00,
2013-01-29 09:07:00,68.2,63.5,-100.00,SSE,158,4.0,4.0,85,0.00,,,0.00,meteohub,2013-01-29 15:07:00,
2013-01-29 09:09:00,68.2,63.5,-100.00,SSW,203,2.0,4.0,85,0.00,,,0.00,meteohub,2013-01-29 15:09:00,
2013-01-29 09:15:00,68.5,63.9,-100.00,SE,135,1.0,4.0,85,0.00,,,0.00,meteohub,2013-01-29 15:15:00,
2013-01-29 09:17:00,68.5,63.9,-100.00,SSW,203,3.0,4.0,85,0.00,,,0.00,meteohub,2013-01-29 15:17:00,
2013-01-29 09:21:00,68.5,63.9,-100.00,West,270,3.0,4.0,85,0.00,,,0.00,meteohub,2013-01-29 15:21:00,
2013-01-29 09:23:00,68.7,64.0,-100.00,South,180,11.0,11.0,85,0.00,,,0.00,meteohub,2013-01-29 15:23:00,
2013-01-29 09:25:00,68.7,64.0,-100.00,NW,315,2.0,4.0,85,0.00,,,0.00,meteohub,2013-01-29 15:25:00,
2013-01-29 09:29:00,68.7,63.7,-100.00,East,90,5.0,11.0,84,0.00,,,0.00,meteohub,2013-01-29 15:29:00,
2013-01-29 09:31:00,68.9,63.9,-100.00,SSW,203,1.0,11.0,84,0.00,,,0.00,meteohub,2013-01-29 15:31:00,
2013-01-29 09:32:00,68.9,63.9,-100.00,SSW,203,1.0,11.0,84,0.00,,,0.00,meteohub,2013-01-29 15:32:00,
2013-01-29 09:37:00,68.7,63.7,-100.00,South,180,1.0,11.0,84,0.00,,,0.00,meteohub,2013-01-29 15:37:00,
2013-01-29 09:39:00,68.7,63.7,-100.00,East,90,2.0,11.0,84,0.00,,,0.00,meteohub,2013-01-29 15:39:00,
2013-01-29 09:41:00,68.9,63.9,-100.00,SW,225,0.0,5.0,84,0.00,,,0.00,meteohub,2013-01-29 15:41:00,
2013-01-29 09:45:00,68.9,63.9,-100.00,South,180,5.0,5.0,84,0.00,,,0.00,meteohub,2013-01-29 15:45:00,
2013-01-29 09:47:00,68.9,63.9,-100.00,SSW,203,1.0,5.0,84,0.00,,,0.00,meteohub,2013-01-29 15:47:00,
2013-01-29 09:53:00,69.1,63.7,-100.00,West,270,0.0,5.0,83,0.00,,,0.00,meteohub,2013-01-29 15:53:00,
2013-01-29 09:59:00,69.1,63.7,-100.00,SSW,203,9.0,9.0,83,0.00,,,0.00,meteohub,2013-01-29 15:59:00,
2013-01-29 10:01:00,69.4,64.0,-100.00,SSW,203,2.0,9.0,83,0.00,,,0.00,meteohub,2013-01-29 16:01:00,
2013-01-29 10:03:00,69.4,63.7,-100.00,South,180,2.0,9.0,82,0.00,,,0.00,meteohub,2013-01-29 16:03:00,
2013-01-29 10:05:00,69.6,63.9,-100.00,South,180,3.0,9.0,82,0.00,,,0.00,meteohub,2013-01-29 16:05:00,
2013-01-29 10:07:00,69.6,63.9,-100.00,SW,225,0.0,9.0,82,0.00,,,0.00,meteohub,2013-01-29 16:07:00,
2013-01-29 10:11:00,70.0,64.2,-100.00,SSE,158,2.0,9.0,82,0.00,,,0.00,meteohub,2013-01-29 16:11:00,
2013-01-29 10:13:00,70.0,64.2,-100.00,SSE,158,0.0,9.0,82,0.00,,,0.00,meteohub,2013-01-29 16:13:00,
2013-01-29 10:15:00,70.3,64.6,-100.00,SSE,158,0.0,3.0,82,0.00,,,0.00,meteohub,2013-01-29 16:15:00,
2013-01-29 10:17:00,70.3,64.2,-100.00,South,180,4.0,4.0,81,0.00,,,0.00,meteohub,2013-01-29 16:17:00,
2013-01-29 10:23:00,70.7,64.2,-100.00,SW,225,3.0,5.0,80,0.00,,,0.00,meteohub,2013-01-29 16:23:00,
2013-01-29 10:25:00,70.7,64.2,-100.00,SSW,203,4.0,5.0,80,0.00,,,0.00,meteohub,2013-01-29 16:25:00,
2013-01-29 10:31:00,70.9,64.0,-100.00,South,180,4.0,5.0,79,0.00,,,0.00,meteohub,2013-01-29 16:31:00,
2013-01-29 10:32:00,70.9,64.0,-100.00,South,180,4.0,5.0,79,0.00,,,0.00,meteohub,2013-01-29 16:32:00,
2013-01-29 10:35:00,72.1,64.9,-100.00,South,180,4.0,5.0,78,0.00,,,0.00,meteohub,2013-01-29 16:35:00,
2013-01-29 10:39:00,72.3,64.8,-100.00,WSW,248,4.0,5.0,77,0.00,,,0.00,meteohub,2013-01-29 16:39:00,
2013-01-29 10:41:00,72.5,64.9,-100.00,SSW,203,4.0,4.0,77,0.00,,,0.00,meteohub,2013-01-29 16:41:00,
2013-01-29 10:45:00,72.7,64.2,-100.00,SSW,203,6.0,11.0,75,0.00,,,0.00,meteohub,2013-01-29 16:45:00,
2013-01-29 10:47:00,72.7,64.2,-100.00,SSW,203,6.0,11.0,75,0.00,,,0.00,meteohub,2013-01-29 16:47:00,
2013-01-29 10:53:00,73.0,64.6,-100.00,SW,225,4.0,11.0,75,0.00,,,0.00,meteohub,2013-01-29 16:53:00,
2013-01-29 10:55:00,73.2,64.4,-100.00,SW,225,5.0,11.0,74,0.00,,,0.00,meteohub,2013-01-29 16:55:00,
2013-01-29 10:57:00,73.2,64.4,-100.00,SSW,203,6.0,11.0,74,0.00,,,0.00,meteohub,2013-01-29 16:57:00,
2013-01-29 11:01:00,73.2,64.0,-100.00,South,180,4.0,7.0,73,0.00,,,0.00,meteohub,2013-01-29 17:01:00,
2013-01-29 11:02:00,73.2,64.0,-100.00,South,180,4.0,7.0,73,0.00,,,0.00,meteohub,2013-01-29 17:02:00,
2013-01-29 11:03:00,73.2,64.0,-100.00,ENE,68,2.0,7.0,73,0.00,,,0.00,meteohub,2013-01-29 17:03:00,
2013-01-29 11:07:00,73.4,64.2,-100.00,SSE,158,4.0,7.0,73,0.00,,,0.00,meteohub,2013-01-29 17:07:00,
2013-01-29 11:09:00,73.4,63.9,-100.00,SSE,158,4.0,7.0,72,0.00,,,0.00,meteohub,2013-01-29 17:09:00,
2013-01-29 11:11:00,73.4,63.9,-100.00,South,180,4.0,6.0,72,0.00,,,0.00,meteohub,2013-01-29 17:11:00,
2013-01-29 11:13:00,73.2,63.7,-100.00,WSW,248,4.0,6.0,72,0.00,,,0.00,meteohub,2013-01-29 17:13:00,
2013-01-29 11:17:00,73.2,63.7,-100.00,SSE,158,2.0,4.0,72,0.00,,,0.00,meteohub,2013-01-29 17:17:00,
2013-01-29 11:19:00,73.6,63.7,-100.00,SSE,158,2.0,4.0,71,0.00,,,0.00,meteohub,2013-01-29 17:19:00,
2013-01-29 11:23:00,73.8,64.2,-100.00,SE,135,4.0,4.0,72,0.00,,,0.00,meteohub,2013-01-29 17:23:00,
2013-01-29 11:25:00,74.1,64.0,-100.00,SE,135,2.0,4.0,71,0.00,,,0.00,meteohub,2013-01-29 17:25:00,
2013-01-29 11:29:00,74.8,64.4,-100.00,SSE,158,4.0,4.0,70,0.00,,,0.00,meteohub,2013-01-29 17:29:00,
2013-01-29 11:31:00,74.8,64.4,-100.00,SW,225,4.0,4.0,70,0.00,,,0.00,meteohub,2013-01-29 17:31:00,
2013-01-29 11:32:00,74.8,64.4,-100.00,SW,225,4.0,4.0,70,0.00,,,0.00,meteohub,2013-01-29 17:32:00,
2013-01-29 11:33:00,74.8,64.0,-100.00,South,180,0.0,4.0,69,0.00,,,0.00,meteohub,2013-01-29 17:33:00,
2013-01-29 11:37:00,74.8,64.0,-100.00,SSW,203,5.0,5.0,69,0.00,,,0.00,meteohub,2013-01-29 17:37:00,
2013-01-29 11:39:00,74.8,64.0,-100.00,South,180,2.0,4.0,69,0.00,,,0.00,meteohub,2013-01-29 17:39:00,
2013-01-29 11:42:00,74.8,64.0,-100.00,SSW,203,3.0,5.0,69,0.00,,,0.00,meteohub,2013-01-29 17:42:00,
2013-01-29 11:44:00,75.0,63.7,-100.00,West,270,4.0,5.0,68,0.00,,,0.00,meteohub,2013-01-29 17:44:00,
2013-01-29 11:47:00,74.8,63.5,-100.00,South,180,5.0,5.0,68,0.00,,,0.00,meteohub,2013-01-29 17:47:00,
2013-01-29 11:48:00,74.7,63.0,-100.00,West,270,4.0,5.0,67,0.00,,,0.00,meteohub,2013-01-29 17:48:00,
2013-01-29 11:50:00,74.5,62.8,-100.00,SW,225,4.0,5.0,67,0.00,,,0.00,meteohub,2013-01-29 17:50:00,
2013-01-29 11:52:00,74.5,63.1,-100.00,WSW,248,12.0,12.0,68,0.00,,,0.00,meteohub,2013-01-29 17:52:00,
2013-01-29 11:56:00,74.5,62.8,-100.00,SSW,203,3.0,12.0,67,0.00,,,0.00,meteohub,2013-01-29 17:56:00,
2013-01-29 12:00:00,74.8,63.5,-100.00,South,180,2.0,12.0,68,0.00,,,0.00,meteohub,2013-01-29 18:00:00,
2013-01-29 12:02:00,74.8,63.5,-100.00,South,180,1.0,12.0,68,0.00,,,0.00,meteohub,2013-01-29 18:02:00,
2013-01-29 12:04:00,75.0,63.7,-100.00,SSW,203,5.0,12.0,68,0.00,,,0.00,meteohub,2013-01-29 18:04:00,
2013-01-29 12:08:00,75.4,63.7,-100.00,South,180,10.0,12.0,67,0.00,,,0.00,meteohub,2013-01-29 18:08:00,
2013-01-29 12:12:00,75.9,63.3,-100.00,SSE,158,3.0,10.0,65,0.00,,,0.00,meteohub,2013-01-29 18:12:00,
2013-01-29 12:14:00,76.3,63.7,-100.00,West,270,4.0,10.0,65,0.00,,,0.00,meteohub,2013-01-29 18:14:00,
2013-01-29 12:17:00,76.6,63.5,-100.00,SE,135,3.0,10.0,64,0.00,,,0.00,meteohub,2013-01-29 18:17:00,
2013-01-29 12:20:00,77.2,64.0,-100.00,SSE,158,3.0,10.0,64,0.00,,,0.00,meteohub,2013-01-29 18:20:00,
2013-01-29 12:24:00,77.5,63.5,-100.00,SSE,158,6.0,10.0,62,0.00,,,0.00,meteohub,2013-01-29 18:24:00,
2013-01-29 12:26:00,77.5,63.5,-100.00,South,180,11.0,11.0,62,0.00,,,0.00,meteohub,2013-01-29 18:26:00,
2013-01-29 12:30:00,77.5,63.5,-100.00,West,270,3.0,7.0,62,0.00,,,0.00,meteohub,2013-01-29 18:30:00,
2013-01-29 12:32:00,77.7,64.0,-100.00,SSE,158,6.0,11.0,63,0.00,,,0.00,meteohub,2013-01-29 18:32:00,
2013-01-29 12:34:00,77.7,64.0,-100.00,SSE,158,3.0,11.0,63,0.00,,,0.00,meteohub,2013-01-29 18:34:00,
2013-01-29 12:38:00,77.7,63.7,-100.00,ESE,113,5.0,11.0,62,0.00,,,0.00,meteohub,2013-01-29 18:38:00,
2013-01-29 12:42:00,77.9,63.3,-100.00,South,180,6.0,11.0,61,0.00,,,0.00,meteohub,2013-01-29 18:42:00,
2013-01-29 12:48:00,77.9,62.4,-100.00,ESE,113,4.0,6.0,59,0.00,,,0.00,meteohub,2013-01-29 18:48:00,
2013-01-29 12:50:00,77.7,62.2,-100.00,South,180,4.0,6.0,59,0.00,,,0.00,meteohub,2013-01-29 18:50:00,
2013-01-29 12:54:00,77.4,61.9,-100.00,West,270,2.0,6.0,59,0.00,,,0.00,meteohub,2013-01-29 18:54:00,
2013-01-29 12:58:00,77.2,62.2,-100.00,SSW,203,4.0,6.0,60,0.00,,,0.00,meteohub,2013-01-29 18:58:00,
2013-01-29 13:00:00,77.4,61.9,-100.00,South,180,2.0,6.0,59,0.00,,,0.00,meteohub,2013-01-29 19:00:00,
2013-01-29 13:02:00,77.4,61.9,-100.00,South,180,2.0,6.0,59,0.00,,,0.00,meteohub,2013-01-29 19:02:00,
2013-01-29 13:04:00,77.2,61.7,-100.00,SW,225,6.0,6.0,59,0.00,,,0.00,meteohub,2013-01-29 19:04:00,
2013-01-29 13:06:00,77.2,61.7,-100.00,SW,225,6.0,14.0,59,0.00,,,0.00,meteohub,2013-01-29 19:06:00,
2013-01-29 13:10:00,77.0,62.1,-100.00,SSE,158,2.0,14.0,60,0.00,,,0.00,meteohub,2013-01-29 19:10:00,
2013-01-29 13:12:00,77.2,61.7,-100.00,SSW,203,5.0,14.0,59,0.00,,,0.00,meteohub,2013-01-29 19:12:00,
2013-01-29 13:14:00,77.2,61.7,-100.00,SSW,203,12.0,14.0,59,0.00,,,0.00,meteohub,2013-01-29 19:14:00,
2013-01-29 13:18:00,76.8,61.3,-100.00,NNE,23,2.0,14.0,59,0.00,,,0.00,meteohub,2013-01-29 19:18:00,
2013-01-29 13:20:00,76.8,61.3,-100.00,SW,225,3.0,12.0,59,0.00,,,0.00,meteohub,2013-01-29 19:20:00,
2013-01-29 13:22:00,76.8,61.9,-100.00,SSW,203,2.0,12.0,60,0.00,,,0.00,meteohub,2013-01-29 19:22:00,
2013-01-29 13:24:00,76.6,61.7,-100.00,SE,135,3.0,12.0,60,0.00,,,0.00,meteohub,2013-01-29 19:24:00,
2013-01-29 13:28:00,76.3,61.0,-100.00,SW,225,4.0,12.0,59,0.00,,,0.00,meteohub,2013-01-29 19:28:00,
2013-01-29 13:30:00,76.3,61.0,-100.00,SW,225,4.0,7.0,59,0.00,,,0.00,meteohub,2013-01-29 19:30:00,
2013-01-29 13:32:00,76.3,61.0,-100.00,West,270,4.0,7.0,59,0.00,,,0.00,meteohub,2013-01-29 19:32:00,
2013-01-29 13:34:00,76.3,61.0,-100.00,South,180,6.0,7.0,59,0.00,,,0.00,meteohub,2013-01-29 19:34:00,
2013-01-29 13:36:00,76.5,61.0,-100.00,SSW,203,4.0,7.0,59,0.00,,,0.00,meteohub,2013-01-29 19:36:00,
2013-01-29 13:38:00,76.5,61.0,-100.00,SSW,203,4.0,7.0,59,0.00,,,0.00,meteohub,2013-01-29 19:38:00,
2013-01-29 13:42:00,77.2,62.2,-100.00,SW,225,4.0,7.0,60,0.00,,,0.00,meteohub,2013-01-29 19:42:00,
2013-01-29 13:44:00,77.5,61.5,-100.00,SSW,203,7.0,7.0,58,0.00,,,0.00,meteohub,2013-01-29 19:44:00,
2013-01-29 13:47:00,77.9,61.9,-100.00,West,270,4.0,6.0,58,0.00,,,0.00,meteohub,2013-01-29 19:47:00,
2013-01-29 13:48:00,78.1,61.5,-100.00,SW,225,1.0,6.0,57,0.00,,,0.00,meteohub,2013-01-29 19:48:00,
2013-01-29 13:54:00,78.4,61.5,-100.00,WSW,248,2.0,7.0,56,0.00,,,0.00,meteohub,2013-01-29 19:54:00,
2013-01-29 13:56:00,78.6,62.1,-100.00,SW,225,7.0,7.0,57,0.00,,,0.00,meteohub,2013-01-29 19:56:00,
2013-01-29 13:58:00,79.0,61.5,-100.00,SW,225,7.0,7.0,55,0.00,,,0.00,meteohub,2013-01-29 19:58:00,
2013-01-29 14:01:00,79.0,61.5,-100.00,SSW,203,2.0,7.0,55,0.00,,,0.00,meteohub,2013-01-29 20:01:00,
2013-01-29 14:02:00,79.0,61.5,-100.00,SSW,203,2.0,7.0,55,0.00,,,0.00,meteohub,2013-01-29 20:02:00,
2013-01-29 14:03:00,78.8,61.3,-100.00,South,180,2.0,7.0,55,0.00,,,0.00,meteohub,2013-01-29 20:03:00,
2013-01-29 14:09:00,78.4,61.9,-100.00,ENE,68,0.0,7.0,57,0.00,,,0.00,meteohub,2013-01-29 20:09:00,
2013-01-29 14:11:00,78.6,62.1,-100.00,SE,135,4.0,7.0,57,0.00,,,0.00,meteohub,2013-01-29 20:11:00,
2013-01-29 14:13:00,78.6,62.1,-100.00,SE,135,4.0,7.0,57,0.00,,,0.00,meteohub,2013-01-29 20:13:00,
2013-01-29 14:17:00,78.6,62.1,-100.00,SE,135,0.0,4.0,57,0.00,,,0.00,meteohub,2013-01-29 20:17:00,
2013-01-29 14:19:00,78.6,62.6,-100.00,SSE,158,3.0,4.0,58,0.00,,,0.00,meteohub,2013-01-29 20:19:00,
2013-01-29 14:21:00,79.0,61.9,-100.00,SW,225,3.0,4.0,56,0.00,,,0.00,meteohub,2013-01-29 20:21:00,
2013-01-29 14:27:00,79.3,61.7,-100.00,SSW,203,8.0,8.0,55,0.00,,,0.00,meteohub,2013-01-29 20:27:00,
2013-01-29 14:29:00,79.5,61.9,-100.00,SSE,158,9.0,9.0,55,0.00,,,0.00,meteohub,2013-01-29 20:29:00,
2013-01-29 14:31:00,79.5,61.3,-100.00,SSW,203,4.0,9.0,54,0.00,,,0.00,meteohub,2013-01-29 20:31:00,
2013-01-29 14:32:00,79.5,61.3,-100.00,SSW,203,4.0,9.0,54,0.00,,,0.00,meteohub,2013-01-29 20:32:00,
2013-01-29 14:37:00,79.5,60.8,-100.00,SSW,203,4.0,9.0,53,0.00,,,0.00,meteohub,2013-01-29 20:37:00,
2013-01-29 14:39:00,79.7,61.0,-100.00,SSE,158,2.0,9.0,53,0.00,,,0.00,meteohub,2013-01-29 20:39:00,
2013-01-29 14:41:00,79.9,60.6,-100.00,South,180,5.0,9.0,52,0.00,,,0.00,meteohub,2013-01-29 20:41:00,
2013-01-29 14:47:00,80.1,60.8,-100.00,South,180,4.0,5.0,52,0.00,,,0.00,meteohub,2013-01-29 20:47:00,
2013-01-29 14:51:00,80.4,60.1,-100.00,South,180,4.0,5.0,50,0.00,,,0.00,meteohub,2013-01-29 20:51:00,
2013-01-29 14:53:00,80.4,60.1,-100.00,South,180,4.0,5.0,50,0.00,,,0.00,meteohub,2013-01-29 20:53:00,
2013-01-29 14:57:00,80.8,59.9,-100.00,West,270,2.0,5.0,49,0.00,,,0.00,meteohub,2013-01-29 20:57:00,
2013-01-29 14:59:00,81.1,60.1,-100.00,SSW,203,4.0,5.0,49,0.00,,,0.00,meteohub,2013-01-29 20:59:00,
2013-01-29 15:01:00,81.3,60.3,-100.00,South,180,5.0,5.0,49,0.00,,,0.00,meteohub,2013-01-29 21:01:00,
2013-01-29 15:02:00,81.3,60.3,-100.00,South,180,5.0,5.0,49,0.00,,,0.00,meteohub,2013-01-29 21:02:00,
2013-01-29 15:05:00,81.7,60.6,-100.00,NW,315,2.0,5.0,49,0.00,,,0.00,meteohub,2013-01-29 21:05:00,
2013-01-29 15:07:00,81.7,60.1,-100.00,WSW,248,3.0,5.0,48,0.00,,,0.00,meteohub,2013-01-29 21:07:00,
2013-01-29 15:09:00,81.7,60.1,-100.00,SSW,203,3.0,5.0,48,0.00,,,0.00,meteohub,2013-01-29 21:09:00,
2013-01-29 15:13:00,81.7,59.5,-100.00,SSE,158,3.0,5.0,47,0.00,,,0.00,meteohub,2013-01-29 21:13:00,
2013-01-29 15:15:00,81.9,59.7,-100.00,SW,225,1.0,5.0,47,0.00,,,0.00,meteohub,2013-01-29 21:15:00,
2013-01-29 15:17:00,81.7,59.5,-100.00,SSW,203,4.0,5.0,47,0.00,,,0.00,meteohub,2013-01-29 21:17:00,
2013-01-29 15:23:00,81.3,60.3,-100.00,NNW,338,6.0,6.0,49,0.00,,,0.00,meteohub,2013-01-29 21:23:00,
2013-01-29 15:25:00,81.3,60.3,-100.00,NNW,338,6.0,6.0,49,0.00,,,0.00,meteohub,2013-01-29 21:25:00,
2013-01-29 15:27:00,81.3,59.2,-100.00,West,270,9.0,9.0,47,0.00,,,0.00,meteohub,2013-01-29 21:27:00,
2013-01-29 15:31:00,80.2,54.3,-100.00,NW,315,6.0,9.0,41,0.00,,,0.00,meteohub,2013-01-29 21:31:00,
2013-01-29 15:33:00,79.3,53.6,-100.00,WNW,293,6.0,9.0,41,0.00,,,0.00,meteohub,2013-01-29 21:33:00,
2013-01-29 15:35:00,78.4,52.7,-100.00,SE,135,4.0,9.0,41,0.00,,,0.00,meteohub,2013-01-29 21:35:00,
2013-01-29 15:37:00,77.5,52.0,-100.00,West,270,10.0,10.0,41,0.00,,,0.00,meteohub,2013-01-29 21:37:00,
2013-01-29 15:39:00,76.6,51.3,-100.00,West,270,8.0,9.0,41,0.00,,,0.00,meteohub,2013-01-29 21:39:00,
2013-01-29 15:43:00,75.0,50.4,-100.00,West,270,4.0,10.0,42,0.00,,,0.00,meteohub,2013-01-29 21:43:00,
2013-01-29 15:45:00,74.5,49.8,-100.00,WNW,293,5.0,10.0,42,0.00,,,0.00,meteohub,2013-01-29 21:45:00,
2013-01-29 15:50:00,73.2,48.7,-100.00,NW,315,6.0,10.0,42,0.00,,,0.00,meteohub,2013-01-29 21:50:00,
2013-01-29 15:52:00,72.7,48.9,-100.00,West,270,4.0,10.0,43,0.00,,,0.00,meteohub,2013-01-29 21:52:00,
2013-01-29 15:54:00,72.1,48.4,-100.00,West,270,4.0,10.0,43,0.00,,,0.00,meteohub,2013-01-29 21:54:00,
2013-01-29 15:58:00,71.2,48.2,-100.00,WNW,293,3.0,8.0,44,0.00,,,0.00,meteohub,2013-01-29 21:58:00,
2013-01-29 16:02:00,70.9,48.6,-100.00,WNW,293,1.0,8.0,45,0.00,,,0.00,meteohub,2013-01-29 22:02:00,
2013-01-29 16:06:00,70.3,48.6,-100.00,West,270,6.0,6.0,46,0.00,,,0.00,meteohub,2013-01-29 22:06:00,
2013-01-29 16:10:00,69.6,47.8,-100.00,West,270,7.0,7.0,46,0.00,,,0.00,meteohub,2013-01-29 22:10:00,
2013-01-29 16:14:00,68.9,48.4,-100.00,West,270,2.0,7.0,48,0.00,,,0.00,meteohub,2013-01-29 22:14:00,
2013-01-29 16:16:00,68.7,48.7,-100.00,WNW,293,4.0,7.0,49,0.00,,,0.00,meteohub,2013-01-29 22:16:00,
2013-01-29 16:17:00,68.7,48.7,-100.00,WNW,293,4.0,7.0,49,0.00,,,0.00,meteohub,2013-01-29 22:17:00,
2013-01-29 16:18:00,68.2,49.3,-100.00,West,270,2.0,7.0,51,0.00,,,0.00,meteohub,2013-01-29 22:18:00,
2013-01-29 16:22:00,67.3,49.1,-100.00,North,0,2.0,7.0,52,0.00,,,0.00,meteohub,2013-01-29 22:22:00,
2013-01-29 16:26:00,66.6,48.9,-100.00,NE,45,2.0,7.0,53,0.02,,,0.02,meteohub,2013-01-29 22:26:00,
2013-01-29 16:28:00,66.4,48.7,-100.00,NW,315,6.0,7.0,53,0.02,,,0.02,meteohub,2013-01-29 22:28:00,
2013-01-29 16:32:00,66.0,47.8,-100.00,NNW,338,3.0,6.0,52,0.02,,,0.02,meteohub,2013-01-29 22:32:00,
2013-01-29 16:34:00,66.0,47.8,-100.00,WNW,293,9.0,9.0,52,0.02,,,0.02,meteohub,2013-01-29 22:34:00,
2013-01-29 16:36:00,65.3,46.8,-100.00,NNW,338,5.0,9.0,51,0.02,,,0.02,meteohub,2013-01-29 22:36:00,
2013-01-29 16:40:00,65.1,46.6,-100.00,North,0,3.0,9.0,51,0.02,,,0.02,meteohub,2013-01-29 22:40:00,
2013-01-29 16:42:00,64.8,46.8,-100.00,NNW,338,2.0,11.0,52,0.02,,,0.02,meteohub,2013-01-29 22:42:00,
2013-01-29 16:44:00,64.8,46.8,-100.00,NNW,338,2.0,11.0,52,0.02,,,0.02,meteohub,2013-01-29 22:44:00,
2013-01-29 16:50:00,64.6,47.1,-100.00,SSE,158,2.0,11.0,53,0.02,,,0.02,meteohub,2013-01-29 22:50:00,
2013-01-29 16:52:00,64.4,46.9,-100.00,West,270,3.0,11.0,53,0.02,,,0.02,meteohub,2013-01-29 22:52:00,
2013-01-29 16:54:00,64.2,46.2,-100.00,NW,315,5.0,11.0,52,0.02,,,0.02,meteohub,2013-01-29 22:54:00,
2013-01-29 16:56:00,64.2,46.2,-100.00,WNW,293,6.0,6.0,52,0.02,,,0.02,meteohub,2013-01-29 22:56:00,
2013-01-29 16:58:00,64.2,46.2,-100.00,West,270,6.0,6.0,52,0.02,,,0.02,meteohub,2013-01-29 22:58:00,
2013-01-29 17:02:00,64.2,46.2,-100.00,WNW,293,2.0,6.0,52,0.02,,,0.02,meteohub,2013-01-29 23:02:00,
2013-01-29 17:04:00,64.0,45.5,-100.00,West,270,4.0,6.0,51,0.02,,,0.02,meteohub,2013-01-29 23:04:00,
2013-01-29 17:08:00,63.9,45.3,-100.00,NE,45,5.0,6.0,51,0.02,,,0.02,meteohub,2013-01-29 23:08:00,
2013-01-29 17:10:00,64.0,45.0,-100.00,WNW,293,2.0,6.0,50,0.02,,,0.02,meteohub,2013-01-29 23:10:00,
2013-01-29 17:12:00,63.7,44.8,-100.00,WNW,293,7.0,7.0,50,0.02,,,0.02,meteohub,2013-01-29 23:12:00,
2013-01-29 17:16:00,63.7,44.8,-100.00,West,270,4.0,7.0,50,0.02,,,0.02,meteohub,2013-01-29 23:16:00,
2013-01-29 17:18:00,63.5,44.1,-100.00,North,0,2.0,7.0,49,0.02,,,0.02,meteohub,2013-01-29 23:18:00,
2013-01-29 17:22:00,63.3,43.9,-100.00,WNW,293,2.0,7.0,49,0.02,,,0.02,meteohub,2013-01-29 23:22:00,
2013-01-29 17:24:00,63.1,43.7,-100.00,NNW,338,6.0,7.0,49,0.02,,,0.02,meteohub,2013-01-29 23:24:00,
2013-01-29 17:26:00,63.1,43.7,-100.00,NNW,338,4.0,7.0,49,0.00,,,0.02,meteohub,2013-01-29 23:26:00,
2013-01-29 17:28:00,63.1,43.7,-100.00,WNW,293,6.0,7.0,49,0.00,,,0.02,meteohub,2013-01-29 23:28:00,
2013-01-29 17:32:00,63.1,43.7,-100.00,WSW,248,1.0,6.0,49,0.00,,,0.02,meteohub,2013-01-29 23:32:00,
2013-01-29 17:34:00,63.0,43.0,-100.00,WNW,293,3.0,6.0,48,0.00,,,0.02,meteohub,2013-01-29 23:34:00,
2013-01-29 17:36:00,63.0,43.0,-100.00,West,270,2.0,6.0,48,0.00,,,0.02,meteohub,2013-01-29 23:36:00,
2013-01-29 17:40:00,62.8,42.8,-100.00,WSW,248,2.0,6.0,48,0.00,,,0.02,meteohub,2013-01-29 23:40:00,
2013-01-29 17:44:00,62.8,41.7,-100.00,WNW,293,3.0,6.0,46,0.00,,,0.02,meteohub,2013-01-29 23:44:00,
2013-01-29 17:47:00,62.6,41.5,-100.00,West,270,0.0,4.0,46,0.00,,,0.02,meteohub,2013-01-29 23:47:00,
2013-01-29 17:50:00,62.6,42.1,-100.00,SW,225,1.0,3.0,47,0.00,,,0.02,meteohub,2013-01-29 23:50:00,
2013-01-29 17:52:00,62.6,41.5,-100.00,West,270,4.0,4.0,46,0.00,,,0.02,meteohub,2013-01-29 23:52:00,
2013-01-29 17:54:00,62.4,41.4,-100.00,WNW,293,2.0,3.0,46,0.00,,,0.02,meteohub,2013-01-29 23:54:00,
2013-01-29 17:58:00,62.4,41.4,-100.00,North,0,3.0,4.0,46,0.00,,,0.02,meteohub,2013-01-29 23:58:00,
2013-01-29 18:00:00,62.4,41.4,-100.00,West,270,4.0,5.0,46,0.00,,,0.02,meteohub,2013-01-30 00:00:00,
2013-01-29 18:02:00,62.2,41.2,-100.00,West,270,0.0,5.0,46,0.00,,,0.02,meteohub,2013-01-30 00:02:00,
2013-01-29 18:04:00,62.2,41.2,-100.00,WNW,293,2.0,5.0,46,0.00,,,0.02,meteohub,2013-01-30 00:04:00,
2013-01-29 18:06:00,62.2,40.6,-100.00,West,270,2.0,5.0,45,0.00,,,0.00,meteohub,2013-01-30 00:06:00,
2013-01-29 18:08:00,62.1,40.5,-100.00,WNW,293,3.0,5.0,45,0.00,,,0.00,meteohub,2013-01-30 00:08:00,
2013-01-29 18:10:00,61.9,40.3,-100.00,WNW,293,2.0,5.0,45,0.00,,,0.00,meteohub,2013-01-30 00:10:00,
2013-01-29 18:12:00,61.9,40.3,-100.00,West,270,3.0,5.0,45,0.00,,,0.00,meteohub,2013-01-30 00:12:00,
2013-01-29 18:14:00,61.9,40.3,-100.00,West,270,3.0,5.0,45,0.00,,,0.00,meteohub,2013-01-30 00:14:00,
2013-01-29 18:16:00,61.9,40.3,-100.00,West,270,2.0,4.0,45,0.00,,,0.00,meteohub,2013-01-30 00:16:00,
2013-01-29 18:17:00,61.7,39.6,-100.00,West,270,3.0,4.0,44,0.00,,,0.00,meteohub,2013-01-30 00:17:00,
2013-01-29 18:20:00,61.7,40.1,-100.00,WSW,248,1.0,3.0,45,0.00,,,0.00,meteohub,2013-01-30 00:20:00,
2013-01-29 18:22:00,61.5,39.4,-100.00,WNW,293,3.0,3.0,44,0.00,,,0.00,meteohub,2013-01-30 00:22:00,
2013-01-29 18:24:00,61.5,39.9,-100.00,WNW,293,3.0,3.0,45,0.00,,,0.00,meteohub,2013-01-30 00:24:00,
2013-01-29 18:31:00,61.5,39.9,-100.00,WNW,293,1.0,3.0,45,0.00,,,0.00,meteohub,2013-01-30 00:31:00,
2013-01-29 18:32:00,61.5,39.9,-100.00,WNW,293,1.0,3.0,45,0.00,,,0.00,meteohub,2013-01-30 00:32:00,
2013-01-29 18:33:00,61.3,39.7,-100.00,WNW,293,3.0,3.0,45,0.00,,,0.00,meteohub,2013-01-30 00:33:00,
2013-01-29 18:37:00,61.2,39.7,-100.00,NNW,338,5.0,5.0,45,0.00,,,0.00,meteohub,2013-01-30 00:37:00,
2013-01-29 18:39:00,61.0,38.8,-100.00,WNW,293,4.0,4.0,44,0.00,,,0.00,meteohub,2013-01-30 00:39:00,
2013-01-29 18:43:00,61.0,39.6,-100.00,NW,315,0.0,5.0,45,0.00,,,0.00,meteohub,2013-01-30 00:43:00,
2013-01-29 18:45:00,60.8,39.4,-100.00,West,270,2.0,5.0,45,0.00,,,0.00,meteohub,2013-01-30 00:45:00,
2013-01-29 18:47:00,60.8,39.4,-100.00,West,270,2.0,5.0,45,0.00,,,0.00,meteohub,2013-01-30 00:47:00,
2013-01-29 18:51:00,60.6,39.2,-100.00,NW,315,4.0,5.0,45,0.00,,,0.00,meteohub,2013-01-30 00:51:00,
2013-01-29 18:53:00,60.6,39.2,-100.00,WNW,293,2.0,5.0,45,0.00,,,0.00,meteohub,2013-01-30 00:53:00,
2013-01-29 18:55:00,60.6,39.2,-100.00,West,270,2.0,5.0,45,0.00,,,0.00,meteohub,2013-01-30 00:55:00,
2013-01-29 18:59:00,60.3,38.3,-100.00,WNW,293,2.0,4.0,44,0.00,,,0.00,meteohub,2013-01-30 00:59:00,
2013-01-29 19:01:00,60.3,38.3,-100.00,NNW,338,5.0,5.0,44,0.00,,,0.00,meteohub,2013-01-30 01:01:00,
2013-01-29 19:02:00,60.1,38.1,-100.00,WNW,293,2.0,4.0,44,0.00,,,0.00,meteohub,2013-01-30 01:02:00,
2013-01-29 19:03:00,60.1,38.1,-100.00,WNW,293,2.0,4.0,44,0.00,,,0.00,meteohub,2013-01-30 01:03:00,
2013-01-29 19:07:00,60.1,37.6,-100.00,West,270,1.0,5.0,43,0.00,,,0.00,meteohub,2013-01-30 01:07:00,
2013-01-29 19:09:00,60.1,38.1,-100.00,WNW,293,3.0,5.0,44,0.00,,,0.00,meteohub,2013-01-30 01:09:00,
2013-01-29 19:13:00,59.9,37.4,-100.00,NNW,338,0.0,5.0,43,0.00,,,0.00,meteohub,2013-01-30 01:13:00,
2013-01-29 19:15:00,59.9,37.4,-100.00,East,90,2.0,5.0,43,0.00,,,0.00,meteohub,2013-01-30 01:15:00,
2013-01-29 19:17:00,59.9,37.4,-100.00,East,90,2.0,5.0,43,0.00,,,0.00,meteohub,2013-01-30 01:17:00,
2013-01-29 19:21:00,59.7,37.2,-100.00,West,270,2.0,3.0,43,0.00,,,0.00,meteohub,2013-01-30 01:21:00,
2013-01-29 19:23:00,59.7,37.2,-100.00,West,270,2.0,3.0,43,0.00,,,0.00,meteohub,2013-01-30 01:23:00,
2013-01-29 19:25:00,59.5,37.0,-100.00,WNW,293,3.0,3.0,43,0.00,,,0.00,meteohub,2013-01-30 01:25:00,
2013-01-29 19:27:00,59.5,36.5,-100.00,WNW,293,2.0,3.0,42,0.00,,,0.00,meteohub,2013-01-30 01:27:00,
2013-01-29 19:31:00,59.4,36.3,-100.00,WSW,248,2.0,3.0,42,0.00,,,0.00,meteohub,2013-01-30 01:31:00,
2013-01-29 19:32:00,59.4,36.3,-100.00,WSW,248,1.0,3.0,42,0.00,,,0.00,meteohub,2013-01-30 01:32:00,
2013-01-29 19:33:00,59.4,36.3,-100.00,WSW,248,1.0,3.0,42,0.00,,,0.00,meteohub,2013-01-30 01:33:00,
2013-01-29 19:37:00,59.2,36.1,-100.00,WNW,293,1.0,3.0,42,0.00,,,0.00,meteohub,2013-01-30 01:37:00,
2013-01-29 19:39:00,59.2,36.1,-100.00,WNW,293,0.0,3.0,42,0.00,,,0.00,meteohub,2013-01-30 01:39:00,
2013-01-29 19:45:00,58.8,35.8,-100.00,NW,315,0.0,3.0,42,0.00,,,0.00,meteohub,2013-01-30 01:45:00,
2013-01-29 19:47:00,58.8,35.8,-100.00,WSW,248,2.0,3.0,42,0.00,,,0.00,meteohub,2013-01-30 01:47:00,
2013-01-29 19:51:00,58.6,35.6,-100.00,WNW,293,0.0,3.0,42,0.00,,,0.00,meteohub,2013-01-30 01:51:00,
2013-01-29 19:53:00,58.6,36.1,-100.00,West,270,1.0,3.0,43,0.00,,,0.00,meteohub,2013-01-30 01:53:00,
2013-01-29 19:55:00,58.6,35.6,-100.00,East,90,0.0,2.0,42,0.00,,,0.00,meteohub,2013-01-30 01:55:00,
2013-01-29 19:59:00,58.6,35.6,-100.00,NW,315,2.0,2.0,42,0.00,,,0.00,meteohub,2013-01-30 01:59:00,
2013-01-29 20:01:00,58.6,35.6,-100.00,NW,315,1.0,2.0,42,0.00,,,0.00,meteohub,2013-01-30 02:01:00,
2013-01-29 20:02:00,58.5,35.4,-100.00,WNW,293,1.0,2.0,42,0.00,,,0.00,meteohub,2013-01-30 02:02:00,
2013-01-29 20:05:00,58.3,35.2,-100.00,WNW,293,2.0,2.0,42,0.00,,,0.00,meteohub,2013-01-30 02:05:00,
2013-01-29 20:07:00,58.3,35.2,-100.00,West,270,2.0,2.0,42,0.00,,,0.00,meteohub,2013-01-30 02:07:00,
2013-01-29 20:09:00,58.3,35.2,-100.00,NW,315,1.0,2.0,42,0.00,,,0.00,meteohub,2013-01-30 02:09:00,
2013-01-29 20:13:00,57.9,35.6,-100.00,WNW,293,2.0,2.0,43,0.00,,,0.00,meteohub,2013-01-30 02:13:00,
2013-01-29 20:15:00,57.9,34.9,-100.00,NW,315,0.0,2.0,42,0.00,,,0.00,meteohub,2013-01-30 02:15:00,
2013-01-29 20:17:00,57.9,34.9,-100.00,West,270,2.0,2.0,42,0.00,,,0.00,meteohub,2013-01-30 02:17:00,
2013-01-29 20:21:00,57.6,34.7,-100.00,WNW,293,0.0,2.0,42,0.00,,,0.00,meteohub,2013-01-30 02:21:00,
2013-01-29 20:25:00,57.6,35.2,-100.00,WNW,293,0.0,2.0,43,0.00,,,0.00,meteohub,2013-01-30 02:25:00,
2013-01-29 20:27:00,57.4,35.1,-100.00,WNW,293,1.0,2.0,43,0.00,,,0.00,meteohub,2013-01-30 02:27:00,
2013-01-29 20:31:00,57.4,34.5,-100.00,NNW,338,1.0,2.0,42,0.00,,,0.00,meteohub,2013-01-30 02:31:00,
2013-01-29 20:32:00,57.4,34.5,-100.00,NNW,338,1.0,2.0,42,0.00,,,0.00,meteohub,2013-01-30 02:32:00,
2013-01-29 20:33:00,57.4,33.8,-100.00,WSW,248,2.0,2.0,41,0.00,,,0.00,meteohub,2013-01-30 02:33:00,
2013-01-29 20:37:00,57.0,33.6,-100.00,West,270,3.0,3.0,41,0.00,,,0.00,meteohub,2013-01-30 02:37:00,
2013-01-29 20:41:00,57.0,33.6,-100.00,WSW,248,4.0,4.0,41,0.00,,,0.00,meteohub,2013-01-30 02:41:00,
2013-01-29 20:43:00,57.0,32.9,-100.00,West,270,3.0,3.0,40,0.00,,,0.00,meteohub,2013-01-30 02:43:00,
2013-01-29 20:47:00,56.8,32.2,-100.00,NW,315,2.0,4.0,39,0.00,,,0.00,meteohub,2013-01-30 02:47:00,
2013-01-29 20:53:00,56.8,32.2,-100.00,WNW,293,4.0,5.0,39,0.00,,,0.00,meteohub,2013-01-30 02:53:00,
2013-01-29 20:58:00,56.8,31.5,-100.00,SE,135,3.0,8.0,38,0.00,,,0.00,meteohub,2013-01-30 02:58:00,
2013-01-29 21:00:00,56.8,31.5,-100.00,West,270,6.0,8.0,38,0.00,,,0.00,meteohub,2013-01-30 03:00:00,
2013-01-29 21:02:00,56.8,31.5,-100.00,WNW,293,4.0,8.0,38,0.00,,,0.00,meteohub,2013-01-30 03:02:00,
2013-01-29 21:06:00,56.8,31.5,-100.00,West,270,6.0,8.0,38,0.00,,,0.00,meteohub,2013-01-30 03:06:00,
2013-01-29 21:08:00,56.8,31.5,-100.00,West,270,6.0,8.0,38,0.00,,,0.00,meteohub,2013-01-30 03:08:00,
2013-01-29 21:10:00,56.5,31.1,-100.00,WNW,293,8.0,8.0,38,0.00,,,0.00,meteohub,2013-01-30 03:10:00,
2013-01-29 21:16:00,56.3,30.4,-100.00,West,270,4.0,8.0,37,0.00,,,0.00,meteohub,2013-01-30 03:16:00,
2013-01-29 21:17:00,56.5,31.1,-100.00,West,270,2.0,8.0,38,0.00,,,0.00,meteohub,2013-01-30 03:17:00,
2013-01-29 21:18:00,56.5,31.1,-100.00,West,270,2.0,8.0,38,0.00,,,0.00,meteohub,2013-01-30 03:18:00,
2013-01-29 21:22:00,56.1,30.9,-100.00,WNW,293,2.0,8.0,38,0.00,,,0.00,meteohub,2013-01-30 03:22:00,
2013-01-29 21:28:00,56.1,30.9,-100.00,WNW,293,4.0,6.0,38,0.00,,,0.00,meteohub,2013-01-30 03:28:00,
2013-01-29 21:32:00,55.9,30.7,-100.00,WNW,293,3.0,4.0,38,0.00,,,0.00,meteohub,2013-01-30 03:32:00,
2013-01-29 21:34:00,55.9,31.3,-100.00,West,270,3.0,4.0,39,0.00,,,0.00,meteohub,2013-01-30 03:34:00,
2013-01-29 21:36:00,55.8,31.1,-100.00,WSW,248,2.0,5.0,39,0.00,,,0.00,meteohub,2013-01-30 03:36:00,
2013-01-29 21:40:00,55.6,31.1,-100.00,SW,225,7.0,7.0,39,0.00,,,0.00,meteohub,2013-01-30 03:40:00,
2013-01-29 21:42:00,55.6,31.1,-100.00,SW,225,7.0,7.0,39,0.00,,,0.00,meteohub,2013-01-30 03:42:00,
2013-01-29 21:47:00,55.4,30.2,-100.00,WSW,248,2.0,7.0,38,0.00,,,0.00,meteohub,2013-01-30 03:47:00,
2013-01-29 21:48:00,55.4,30.2,-100.00,WSW,248,2.0,7.0,38,0.00,,,0.00,meteohub,2013-01-30 03:48:00,
2013-01-29 21:54:00,55.2,30.0,-100.00,West,270,3.0,7.0,38,0.00,,,0.00,meteohub,2013-01-30 03:54:00,
2013-01-29 21:56:00,55.0,29.8,-100.00,WNW,293,3.0,7.0,38,0.00,,,0.00,meteohub,2013-01-30 03:56:00,
2013-01-29 22:00:00,55.0,29.8,-100.00,WNW,293,3.0,7.0,38,0.00,,,0.00,meteohub,2013-01-30 04:00:00,
2013-01-29 22:02:00,54.9,29.7,-100.00,NW,315,4.0,4.0,38,0.00,,,0.00,meteohub,2013-01-30 04:02:00,
2013-01-29 22:06:00,54.7,29.5,-100.00,WNW,293,2.0,4.0,38,0.00,,,0.00,meteohub,2013-01-30 04:06:00,
2013-01-29 22:10:00,54.5,29.5,-100.00,WNW,293,3.0,4.0,38,0.00,,,0.00,meteohub,2013-01-30 04:10:00,
2013-01-29 22:12:00,54.5,29.5,-100.00,NW,315,3.0,4.0,38,0.00,,,0.00,meteohub,2013-01-30 04:12:00,
2013-01-29 22:18:00,54.3,29.3,-100.00,WNW,293,6.0,6.0,38,0.00,,,0.00,meteohub,2013-01-30 04:18:00,
2013-01-29 22:20:00,54.3,28.6,-100.00,West,270,6.0,6.0,37,0.00,,,0.00,meteohub,2013-01-30 04:20:00,
2013-01-29 22:22:00,54.3,28.6,-100.00,WNW,293,2.0,6.0,37,0.00,,,0.00,meteohub,2013-01-30 04:22:00,
2013-01-29 22:24:00,54.1,28.4,-100.00,WNW,293,3.0,6.0,37,0.00,,,0.00,meteohub,2013-01-30 04:24:00,
2013-01-29 22:26:00,54.1,28.4,-100.00,South,180,1.0,6.0,37,0.00,,,0.00,meteohub,2013-01-30 04:26:00,
2013-01-29 22:30:00,54.0,28.2,-100.00,NW,315,2.0,6.0,37,0.00,,,0.00,meteohub,2013-01-30 04:30:00,
2013-01-29 22:34:00,53.8,28.0,-100.00,West,270,2.0,6.0,37,0.00,,,0.00,meteohub,2013-01-30 04:34:00,
2013-01-29 22:36:00,53.8,28.0,-100.00,NW,315,4.0,6.0,37,0.00,,,0.00,meteohub,2013-01-30 04:36:00,
2013-01-29 22:38:00,53.8,28.0,-100.00,NW,315,3.0,6.0,37,0.00,,,0.00,meteohub,2013-01-30 04:38:00,
2013-01-29 22:42:00,53.8,28.0,-100.00,West,270,1.0,4.0,37,0.00,,,0.00,meteohub,2013-01-30 04:42:00,
2013-01-29 22:44:00,53.8,26.8,-100.00,WNW,293,4.0,4.0,35,0.00,,,0.00,meteohub,2013-01-30 04:44:00,
2013-01-29 22:47:00,53.6,27.3,-100.00,SW,225,4.0,4.0,36,0.00,,,0.00,meteohub,2013-01-30 04:47:00,
2013-01-29 22:50:00,53.4,27.1,-100.00,NW,315,5.0,5.0,36,0.00,,,0.00,meteohub,2013-01-30 04:50:00,
2013-01-29 22:52:00,53.4,26.4,-100.00,NNW,338,2.0,4.0,35,0.00,,,0.00,meteohub,2013-01-30 04:52:00,
2013-01-29 22:56:00,53.4,26.4,-100.00,NNW,338,5.0,7.0,35,0.00,,,0.00,meteohub,2013-01-30 04:56:00,
2013-01-29 22:58:00,53.4,26.4,-100.00,West,270,3.0,7.0,35,0.00,,,0.00,meteohub,2013-01-30 04:58:00,
2013-01-29 23:00:00,53.4,26.4,-100.00,West,270,3.0,7.0,35,0.00,,,0.00,meteohub,2013-01-30 05:00:00,
2013-01-29 23:04:00,53.2,26.2,-100.00,WSW,248,4.0,7.0,35,0.00,,,0.00,meteohub,2013-01-30 05:04:00,
2013-01-29 23:06:00,53.2,25.5,-100.00,North,0,2.0,7.0,34,0.00,,,0.00,meteohub,2013-01-30 05:06:00,
2013-01-29 23:10:00,52.9,25.3,-100.00,WNW,293,9.0,9.0,34,0.00,,,0.00,meteohub,2013-01-30 05:10:00,
2013-01-29 23:12:00,52.9,25.3,-100.00,WNW,293,3.0,5.0,34,0.00,,,0.00,meteohub,2013-01-30 05:12:00,
2013-01-29 23:16:00,52.9,25.3,-100.00,West,270,0.0,9.0,34,0.00,,,0.00,meteohub,2013-01-30 05:16:00,
2013-01-29 23:18:00,52.9,25.3,-100.00,West,270,6.0,9.0,34,0.00,,,0.00,meteohub,2013-01-30 05:18:00,
2013-01-29 23:22:00,52.9,25.3,-100.00,West,270,8.0,9.0,34,0.00,,,0.00,meteohub,2013-01-30 05:22:00,
2013-01-29 23:26:00,52.7,24.4,-100.00,West,270,3.0,9.0,33,0.00,,,0.00,meteohub,2013-01-30 05:26:00,
2013-01-29 23:30:00,52.5,24.3,-100.00,WSW,248,6.0,9.0,33,0.00,,,0.00,meteohub,2013-01-30 05:30:00,
2013-01-29 23:32:00,52.5,24.3,-100.00,WNW,293,6.0,9.0,33,0.00,,,0.00,meteohub,2013-01-30 05:32:00,
2013-01-29 23:36:00,52.3,24.1,-100.00,North,0,5.0,8.0,33,0.00,,,0.00,meteohub,2013-01-30 05:36:00,
2013-01-29 23:43:00,52.3,23.4,-100.00,WNW,293,6.0,7.0,32,0.00,,,0.00,meteohub,2013-01-30 05:43:00,
2013-01-29 23:45:00,52.3,23.4,-100.00,East,90,7.0,7.0,32,0.00,,,0.00,meteohub,2013-01-30 05:45:00,
2013-01-29 23:49:00,52.3,23.4,-100.00,NW,315,4.0,7.0,32,0.00,,,0.00,meteohub,2013-01-30 05:49:00,
2013-01-29 23:53:00,52.2,23.2,-100.00,NW,315,4.0,7.0,32,0.00,,,0.00,meteohub,2013-01-30 05:53:00,
2013-01-29 23:59:00,52.2,23.2,-100.00,NW,315,6.0,7.0,32,0.00,,,0.00,meteohub,2013-01-30 05:59:00,